When you browse on this site, cookies collect data to enhance your experience and personalize the content and advertising you see.
Visit our Privacy Policy to learn more. By continuing to use the site, you agree to this use of cookies and data.
  • In France
  • List of Countries
  • For 7 days
  • Water Temperature
  • Weather Map
  • Weather Widgets
  • user-avatar
    Login

    Hourly Weather Kanye

    Today, 23 August, Friday

    Time Temperature Precipitation Wind Pressure Humidity
    00:00 +11°C° 0 mm 1 mps 655 mmHg 52%
    01:00 +10°C° 0 mm 1 mps 655 mmHg 52%
    02:00 +10°C° 0 mm 1 mps 655 mmHg 53%
    03:00 +10°C° 0 mm 1 mps 655 mmHg 52%
    04:00 +9°C° 0 mm 1 mps 655 mmHg 51%
    05:00 +9°C° 0 mm 1 mps 655 mmHg 50%
    06:00 +11°C° 0 mm 1 mps 656 mmHg 42%
    07:00 +13°C° 0 mm 2 mps 657 mmHg 34%
    08:00 +15°C° 0 mm 2 mps 658 mmHg 26%
    09:00 +18°C° 0 mm 2 mps 658 mmHg 21%
    10:00 +21°C° 0 mm 3 mps 659 mmHg 16%
    11:00 +25°C° 0 mm 3 mps 660 mmHg 11%
    12:00 +26°C° 0 mm 3 mps 659 mmHg 9%
    13:00 +27°C° 0 mm 3 mps 659 mmHg 8%
    14:00 +28°C° 0 mm 3 mps 659 mmHg 6%
    15:00 +28°C° 0 mm 3 mps 658 mmHg 6%
    16:00 +28°C° 0 mm 3 mps 658 mmHg 7%
    17:00 +27°C° 0 mm 3 mps 657 mmHg 7%
    18:00 +22°C° 0 mm 3 mps 657 mmHg 13%
    19:00 +18°C° 0 mm 2 mps 656 mmHg 20%
    20:00 +15°C° 0 mm 1 mps 655 mmHg 26%
    21:00 +14°C° 0 mm 1 mps 655 mmHg 29%
    22:00 +13°C° 0 mm 1 mps 655 mmHg 32%
    23:00 +12°C° 0 mm 1 mps 655 mmHg 35%

    Tomorrow, 24 August, Saturday

    Time Temperature Precipitation Wind Pressure Humidity
    00:00 +11°C° 0 mm 1 mps 655 mmHg 36%
    01:00 +11°C° 0 mm 1 mps 655 mmHg 38%
    02:00 +10°C° 0 mm 1 mps 655 mmHg 40%
    03:00 +10°C° 0 mm 1 mps 655 mmHg 35%
    04:00 +9°C° 0 mm 2 mps 655 mmHg 30%
    05:00 +9°C° 0 mm 2 mps 655 mmHg 25%
    06:00 +10°C° 0 mm 3 mps 655 mmHg 25%
    07:00 +11°C° 0 mm 3 mps 656 mmHg 24%
    08:00 +12°C° 0 mm 3 mps 657 mmHg 23%
    09:00 +17°C° 0 mm 4 mps 658 mmHg 21%
    10:00 +20°C° 0 mm 4 mps 659 mmHg 19%
    11:00 +23°C° 0 mm 4 mps 660 mmHg 17%
    12:00 +25°C° 0 mm 4 mps 659 mmHg 15%
    13:00 +27°C° 0 mm 3 mps 658 mmHg 13%
    14:00 +28°C° 0 mm 2 mps 658 mmHg 10%
    15:00 +28°C° 0 mm 3 mps 657 mmHg 10%
    16:00 +27°C° 0 mm 3 mps 657 mmHg 10%
    17:00 +27°C° 0 mm 3 mps 657 mmHg 10%
    18:00 +24°C° 0 mm 3 mps 656 mmHg 14%
    19:00 +19°C° 0 mm 2 mps 655 mmHg 18%
    20:00 +16°C° 0 mm 2 mps 654 mmHg 23%
    21:00 +15°C° 0 mm 2 mps 654 mmHg 24%
    22:00 +15°C° 0 mm 2 mps 654 mmHg 25%
    23:00 +14°C° 0 mm 2 mps 655 mmHg 25%

    Day after tomorrow, 25 August, Sunday

    Time Temperature Precipitation Wind Pressure Humidity
    00:00 +13°C° 0 mm 2 mps 654 mmHg 28%
    01:00 +12°C° 0 mm 1 mps 654 mmHg 32%
    02:00 +12°C° 0 mm 1 mps 654 mmHg 35%
    03:00 +11°C° 0 mm 1 mps 653 mmHg 36%
    04:00 +10°C° 0 mm 1 mps 653 mmHg 37%
    05:00 +9°C° 0 mm 1 mps 653 mmHg 38%
    06:00 +10°C° 0 mm 2 mps 654 mmHg 33%
    07:00 +12°C° 0 mm 2 mps 655 mmHg 28%
    08:00 +14°C° 0 mm 2 mps 656 mmHg 23%
    09:00 +17°C° 0 mm 2 mps 656 mmHg 21%
    10:00 +20°C° 0 mm 3 mps 657 mmHg 19%
    11:00 +24°C° 0 mm 3 mps 658 mmHg 17%
    12:00 +25°C° 0 mm 3 mps 657 mmHg 15%
    13:00 +27°C° 0 mm 2 mps 657 mmHg 13%
    14:00 +28°C° 0 mm 2 mps 656 mmHg 11%
    15:00 +28°C° 0 mm 2 mps 656 mmHg 11%
    16:00 +28°C° 0 mm 2 mps 656 mmHg 11%
    17:00 +28°C° 0 mm 2 mps 655 mmHg 10%
    18:00 +24°C° 0 mm 2 mps 654 mmHg 16%
    19:00 +20°C° 0 mm 2 mps 654 mmHg 21%
    20:00 +16°C° 0 mm 2 mps 653 mmHg 26%
    21:00 +15°C° 0 mm 2 mps 653 mmHg 29%
    22:00 +14°C° 0 mm 1 mps 652 mmHg 33%
    23:00 +13°C° 0 mm 1 mps 652 mmHg 36%

    26 August, Monday

    Time Temperature Precipitation Wind Pressure Humidity
    00:00 +13°C° 0 mm 1 mps 652 mmHg 37%
    01:00 +13°C° 0 mm 1 mps 652 mmHg 38%
    02:00 +12°C° 0 mm 1 mps 653 mmHg 38%
    03:00 +12°C° 0 mm 1 mps 652 mmHg 41%
    04:00 +11°C° 0 mm 1 mps 652 mmHg 45%
    05:00 +9°C° 0 mm 0 mps 652 mmHg 48%
    06:00 +12°C° 0 mm 0 mps 653 mmHg 39%
    07:00 +14°C° 0 mm 0 mps 655 mmHg 30%
    08:00 +17°C° 0 mm 0 mps 656 mmHg 21%
    09:00 +20°C° 0 mm 0 mps 656 mmHg 18%
    10:00 +25°C° 0 mm 1 mps 657 mmHg 15%
    11:00 +28°C° 0 mm 1 mps 657 mmHg 11%
    12:00 +29°C° 0 mm 2 mps 657 mmHg 10%
    13:00 +30°C° 0 mm 2 mps 656 mmHg 9%
    14:00 +30°C° 0 mm 3 mps 656 mmHg 8%
    15:00 +30°C° 0 mm 3 mps 655 mmHg 8%
    16:00 +30°C° 0 mm 3 mps 655 mmHg 8%
    17:00 +29°C° 0 mm 3 mps 654 mmHg 8%
    18:00 +26°C° 0 mm 3 mps 654 mmHg 11%
    19:00 +22°C° 0 mm 3 mps 653 mmHg 14%
    20:00 +18°C° 0 mm 2 mps 653 mmHg 18%
    21:00 +18°C° 0 mm 2 mps 653 mmHg 20%
    22:00 +17°C° 0 mm 2 mps 652 mmHg 23%
    23:00 +16°C° 0 mm 2 mps 652 mmHg 26%

    27 August, Tuesday

    Time Temperature Precipitation Wind Pressure Humidity
    00:00 +15°C° 0 mm 2 mps 652 mmHg 27%
    01:00 +15°C° 0 mm 2 mps 652 mmHg 27%
    02:00 +14°C° 0 mm 2 mps 652 mmHg 28%
    03:00 +13°C° 0 mm 2 mps 652 mmHg 29%
    04:00 +13°C° 0 mm 2 mps 652 mmHg 30%
    05:00 +12°C° 0 mm 2 mps 651 mmHg 32%
    06:00 +13°C° 0 mm 2 mps 652 mmHg 29%
    07:00 +14°C° 0 mm 3 mps 653 mmHg 26%
    08:00 +16°C° 0 mm 3 mps 654 mmHg 23%
    09:00 +20°C° 0 mm 3 mps 655 mmHg 21%
    10:00 +23°C° 0 mm 4 mps 655 mmHg 18%
    11:00 +27°C° 0 mm 4 mps 656 mmHg 16%
    12:00 +29°C° 0 mm 4 mps 656 mmHg 14%
    13:00 +30°C° 0 mm 3 mps 655 mmHg 12%
    14:00 +31°C° 0 mm 2 mps 655 mmHg 10%
    15:00 +31°C° 0 mm 2 mps 654 mmHg 10%
    16:00 +30°C° 0 mm 2 mps 654 mmHg 10%
    17:00 +30°C° 0 mm 2 mps 653 mmHg 10%
    18:00 +26°C° 0 mm 2 mps 652 mmHg 19%
    19:00 +21°C° 0 mm 1 mps 651 mmHg 28%
    20:00 +16°C° 0 mm 1 mps 650 mmHg 38%
    21:00 +16°C° 0 mm 1 mps 650 mmHg 35%
    22:00 +16°C° 0 mm 1 mps 651 mmHg 33%
    23:00 +16°C° 0 mm 1 mps 651 mmHg 31%

    28 August, Wednesday

    Time Temperature Precipitation Wind Pressure Humidity
    00:00 +16°C° 0 mm 1 mps 651 mmHg 30%
    01:00 +15°C° 0 mm 1 mps 650 mmHg 30%
    02:00 +15°C° 0 mm 2 mps 650 mmHg 29%
    03:00 +14°C° 0 mm 1 mps 650 mmHg 33%
    04:00 +13°C° 0 mm 1 mps 650 mmHg 38%
    05:00 +13°C° 0 mm 1 mps 650 mmHg 42%
    06:00 +15°C° 0 mm 1 mps 651 mmHg 35%
    07:00 +18°C° 0 mm 1 mps 652 mmHg 27%
    08:00 +20°C° 0 mm 1 mps 653 mmHg 20%
    09:00 +23°C° 0 mm 2 mps 653 mmHg 18%
    10:00 +26°C° 0 mm 3 mps 654 mmHg 15%
    11:00 +29°C° 0 mm 4 mps 654 mmHg 13%
    12:00 +30°C° 0 mm 3 mps 654 mmHg 12%
    13:00 +31°C° 0 mm 3 mps 653 mmHg 11%
    14:00 +33°C° 0 mm 3 mps 653 mmHg 10%
    15:00 +31°C° 0 mm 3 mps 652 mmHg 9%
    16:00 +31°C° 0 mm 3 mps 652 mmHg 9%
    17:00 +31°C° 0 mm 3 mps 652 mmHg 9%
    18:00 +27°C° 0 mm 2 mps 651 mmHg 17%
    19:00 +23°C° 0 mm 2 mps 650 mmHg 24%
    20:00 +19°C° 0 mm 1 mps 649 mmHg 31%
    21:00 +18°C° 0 mm 1 mps 649 mmHg 33%
    22:00 +16°C° 0 mm 1 mps 649 mmHg 35%
    23:00 +15°C° 0 mm 1 mps 649 mmHg 37%
    Show more